Mora, MN

11:38 PM CST on January 20, 2017 (GMT -0600)
Mora Municipal

Weather History for KJMR - June, 2013

Change the Weather History Date:

Tuesday, June 25, 2013

  Actual Average Record
Temperature  
Mean Temperature 70 °F -  
Max Temperature 82 °F 79 °F 93 °F (1944)
Min Temperature 59 °F 53 °F 36 °F (1988)
Cooling Degree Days 6    
Growing Degree Days 20 (Base 50)    
Moisture  
Dew Point 62 °F    
Average Humidity 74    
Maximum Humidity 100    
Minimum Humidity 51    
Precipitation  
Precipitation 0.00 in - - ()
Sea Level Pressure  
Sea Level Pressure 29.81 in    
Wind  
Wind Speed 2 mph (SE)    
Max Wind Speed 9 mph    
Max Gust Speed -    
Visibility 9 miles    
Events Fog    
Averages and records for this station are not official NWS values.
T = Trace of Precipitation, MM = Missing Value Source: NWS Daily Summary

Daily Weather History Graph

Daily Weather History Graph

Search for Another Location

Airport or City:

Trip Planner

Search our weather history database for the weather conditions in past years. The results will help you decide how hot, cold, wet, or windy it might be!

Date:

Astronomy

Jun. 25, 2013 Rise Set
Actual Time 5:23 AM CDT 9:07 PM CDT
Civil Twilight 4:45 AM CDT 9:45 PM CDT
Nautical Twilight 3:53 AM CDT 10:37 PM CDT
Astronomical Twilight 2:42 AM CDT 11:48 PM CDT
Moon 10:41 PM CDT (6/25) 8:13 AM CDT (6/25)
Length of Visible Light 17h 00m
Length of Day
15h 43m
Waning Gibbous, 92% of the Moon is Illuminated
Jun 25
Waning Gibbous
Jun 29
Last Quarter
Jul 8
New
Jul 15
First Quarter
Jul 22
Full

Hourly Weather History & Observations

Time (CDT) Temp. Heat Index Dew Point Humidity Pressure Visibility Wind Dir Wind Speed Gust Speed Precip Events Conditions
12:11 AM 69.8 °F - 66.2 °F 88% 29.84 in 10.0 mi Calm Calm - N/A   Clear
12:31 AM 66.2 °F - 64.4 °F 94% 29.85 in 7.0 mi Calm Calm - N/A   Clear
12:51 AM 68.0 °F - 64.4 °F 88% 29.85 in 7.0 mi SSE 3.5 mph - N/A   Clear
1:11 AM 66.2 °F - 64.4 °F 94% 29.84 in 7.0 mi SSE 3.5 mph - N/A   Clear
1:31 AM 64.4 °F - 62.6 °F 94% 29.85 in 10.0 mi Calm Calm - N/A   Clear
1:50 AM 64.4 °F - 62.6 °F 94% 29.84 in 10.0 mi SSE 3.5 mph - N/A   Clear
2:11 AM 64.4 °F - 62.6 °F 94% 29.84 in 10.0 mi SSE 3.5 mph - N/A   Clear
2:31 AM 64.4 °F - 62.6 °F 94% 29.85 in 10.0 mi Calm Calm - N/A   Clear
2:51 AM 64.4 °F - 62.6 °F 94% 29.85 in 10.0 mi South 3.5 mph - N/A   Clear
3:11 AM 64.4 °F - 62.6 °F 94% 29.85 in 10.0 mi Calm Calm - N/A   Clear
3:30 AM 64.4 °F - 60.8 °F 88% 29.84 in 10.0 mi Calm Calm - N/A   Clear
3:51 AM 62.6 °F - 60.8 °F 94% 29.85 in 7.0 mi Calm Calm - N/A   Clear
4:10 AM 60.8 °F - 59.0 °F 94% 29.85 in 4.0 mi Calm Calm - N/A   Clear
4:31 AM 60.8 °F - 59.0 °F 94% 29.85 in 5.0 mi Calm Calm - N/A   Clear
4:51 AM 60.8 °F - 59.0 °F 94% 29.85 in 4.0 mi Calm Calm - N/A   Clear
5:10 AM 60.8 °F - 59.0 °F 94% 29.85 in 5.0 mi Calm Calm - N/A   Clear
5:31 AM 59.0 °F - 57.2 °F 94% 29.84 in 0.5 mi Calm Calm - N/A Fog Fog
5:51 AM 59.0 °F - 59.0 °F 100% 29.84 in 3.0 mi Calm Calm - N/A   Clear
6:11 AM 60.8 °F - 59.0 °F 94% 29.84 in 5.0 mi Calm Calm - N/A   Clear
6:31 AM 59.0 °F - 59.0 °F 100% 29.83 in 1.2 mi Calm Calm - N/A   Mist
6:51 AM 62.6 °F - 60.8 °F 94% 29.83 in 7.0 mi Calm Calm - N/A   Clear
7:11 AM 62.6 °F - 62.6 °F 100% 29.83 in 10.0 mi Calm Calm - N/A   Clear
7:31 AM 64.4 °F - 64.4 °F 100% 29.83 in 10.0 mi East 3.5 mph - N/A   Clear
7:51 AM 64.4 °F - 64.4 °F 100% 29.84 in 10.0 mi SE 5.8 mph - N/A   Clear
8:11 AM 64.4 °F - 62.6 °F 94% 29.84 in 10.0 mi SE 3.5 mph - N/A   Clear
8:31 AM 66.2 °F - 62.6 °F 88% 29.83 in 10.0 mi SE 3.5 mph - N/A   Clear
8:51 AM 69.8 °F - 64.4 °F 83% 29.83 in 10.0 mi SE 3.5 mph - N/A   Clear
9:11 AM 69.8 °F - 62.6 °F 78% 29.83 in 10.0 mi SSE 3.5 mph - N/A   Clear
9:30 AM 73.4 °F - 62.6 °F 69% 29.83 in 10.0 mi SE 3.5 mph - N/A   Clear
9:51 AM 73.4 °F - 62.6 °F 69% 29.83 in 10.0 mi SE 4.6 mph - N/A   Clear
10:10 AM 73.4 °F - 62.6 °F 69% 29.83 in 10.0 mi SSE 8.1 mph - N/A   Clear
10:30 AM 73.4 °F - 62.6 °F 69% 29.82 in 10.0 mi SE 5.8 mph - N/A   Clear
10:51 AM 75.2 °F - 62.6 °F 65% 29.82 in 10.0 mi SE 8.1 mph - N/A   Clear
11:11 AM 75.2 °F - 62.6 °F 65% 29.82 in 10.0 mi SSE 6.9 mph - N/A   Clear
11:31 AM 75.2 °F - 62.6 °F 65% 29.82 in 10.0 mi SSE 5.8 mph - N/A   Clear
11:50 AM 77.0 °F - 62.6 °F 61% 29.81 in 10.0 mi SE 5.8 mph - N/A   Clear
12:11 PM 77.0 °F - 60.8 °F 57% 29.82 in 10.0 mi Calm Calm - N/A   Clear
12:30 PM 78.8 °F - 60.8 °F 54% 29.82 in 10.0 mi South 9.2 mph - N/A   Clear
12:51 PM 77.0 °F - 60.8 °F 57% 29.82 in 10.0 mi SE 4.6 mph - N/A   Mostly Cloudy
1:11 PM 78.8 °F - 62.6 °F 57% 29.83 in 10.0 mi South 9.2 mph - N/A   Mostly Cloudy
1:31 PM 78.8 °F - 62.6 °F 57% 29.82 in 10.0 mi South 6.9 mph - N/A   Scattered Clouds
1:51 PM 78.8 °F - 60.8 °F 54% 29.81 in 10.0 mi Calm Calm - N/A   Scattered Clouds
2:11 PM 80.6 °F 81.5 °F 60.8 °F 51% 29.81 in 10.0 mi South 6.9 mph - N/A   Clear
2:30 PM 78.8 °F - 60.8 °F 54% 29.81 in 10.0 mi South 3.5 mph - N/A   Clear
2:50 PM 80.6 °F 81.8 °F 62.6 °F 54% 29.81 in 10.0 mi ESE 8.1 mph - N/A   Clear
3:11 PM 78.8 °F - 60.8 °F 54% 29.80 in 10.0 mi SSE 4.6 mph - N/A   Clear
3:31 PM 82.4 °F 83.4 °F 62.6 °F 51% 29.81 in 10.0 mi SE 4.6 mph - N/A   Scattered Clouds
3:51 PM 82.4 °F 83.9 °F 64.4 °F 54% 29.79 in 10.0 mi SSE 5.8 mph - N/A   Scattered Clouds
4:11 PM 82.4 °F 83.4 °F 62.6 °F 51% 29.79 in 10.0 mi ESE 8.1 mph - N/A   Clear
4:31 PM 82.4 °F 83.9 °F 64.4 °F 54% 29.78 in 10.0 mi ESE 4.6 mph - N/A   Clear
4:50 PM 82.4 °F 83.9 °F 64.4 °F 54% 29.78 in 10.0 mi SE 8.1 mph - N/A   Clear
5:11 PM 82.4 °F 83.4 °F 62.6 °F 51% 29.78 in 10.0 mi SE 5.8 mph - N/A   Clear
5:31 PM 82.4 °F 83.4 °F 62.6 °F 51% 29.78 in 10.0 mi ESE 6.9 mph - N/A   Clear
5:51 PM 82.4 °F 83.4 °F 62.6 °F 51% 29.77 in 10.0 mi SE 6.9 mph - N/A   Clear
6:10 PM 80.6 °F 81.5 °F 60.8 °F 51% 29.77 in 10.0 mi SE 6.9 mph - N/A   Clear
6:31 PM 80.6 °F 81.8 °F 62.6 °F 54% 29.77 in 10.0 mi ESE 5.8 mph - N/A   Clear
6:51 PM 80.6 °F 81.8 °F 62.6 °F 54% 29.77 in 10.0 mi SE 4.6 mph - N/A   Clear
7:11 PM 78.8 °F - 62.6 °F 57% 29.77 in 10.0 mi SE 6.9 mph - N/A   Scattered Clouds
7:30 PM 78.8 °F - 60.8 °F 54% 29.76 in 10.0 mi SSE 4.6 mph - N/A   Scattered Clouds
7:51 PM 78.8 °F - 62.6 °F 57% 29.76 in 10.0 mi SSE 4.6 mph - N/A   Clear
8:11 PM 77.0 °F - 62.6 °F 61% 29.76 in 10.0 mi SSE 3.5 mph - N/A   Clear
8:31 PM 77.0 °F - 62.6 °F 61% 29.75 in 10.0 mi Calm Calm - N/A   Clear
8:50 PM 75.2 °F - 64.4 °F 69% 29.75 in 10.0 mi Calm Calm - N/A   Clear
9:11 PM 73.4 °F - 62.6 °F 69% 29.75 in 10.0 mi Calm Calm - N/A   Scattered Clouds
9:30 PM 73.4 °F - 64.4 °F 73% 29.75 in 10.0 mi Calm Calm - N/A   Mostly Cloudy
9:51 PM 73.4 °F - 64.4 °F 73% 29.75 in 10.0 mi Calm Calm - N/A   Scattered Clouds
10:11 PM 71.6 °F - 64.4 °F 78% 29.75 in 10.0 mi Calm Calm - N/A   Clear
10:31 PM 71.6 °F - 64.4 °F 78% 29.75 in 10.0 mi Calm Calm - N/A   Clear
10:51 PM 69.8 °F - 64.4 °F 83% 29.75 in 10.0 mi Calm Calm - N/A   Clear
11:11 PM 69.8 °F - 64.4 °F 83% 29.75 in 10.0 mi Calm Calm - N/A   Clear
11:31 PM 69.8 °F - 66.2 °F 88% 29.75 in 10.0 mi Calm Calm - N/A   Clear
11:50 PM 69.8 °F - 68.0 °F 94% 29.74 in 10.0 mi Calm Calm - N/A   Clear